Wind_Speed
24 25 25 25 27 28 28 27 26 25 23 22 21 21 21 22 20 18 17 16 16 16 15 14 14 13 13 12 11 11 11 10 11 11 11 11 11 10 10 11 11 10 9 10 10 10 11 11 11 11 12 12 11 11 10 10 11 13 12 10 7 6 8 10 13 14 12 10 10 10 10 12 13 12 13 14 15 17 18 19 19 20 21 21 20
24 25 25 25 26 27 27 27 27 25 24 23 21 20 20 20 20 19 19 17 17 17 17 16 15 15 14 13 13 12 11 11 11 12 13 12 12 11 11 12 12 12 11 11 11 12 13 13 12 11 12 13 13 12 12 11 12 13 13 12 10 9 10 11 13 15 15 14 13 12 12 14 15 13 13 15 15 16 16 15 15 16 17 16 15
24 24 25 25 26 27 27 27 27 26 25 24 23 21 20 19 18 18 17 17 16 17 17 17 16 16 16 16 15 14 13 12 12 13 13 13 13 12 12 13 13 13 13 13 12 13 14 14 13 12 12 13 13 12 11 11 12 13 13 12 13 13 12 12 13 15 17 18 17 15 15 16 15 13 14 15 15 15 15 14 15 16 16 14 12
24 23 25 26 26 26 27 27 27 27 26 25 24 22 21 20 19 18 17 16 16 16 17 17 17 18 18 18 17 16 15 14 14 14 14 13 13 13 13 13 14 14 14 14 14 14 14 15 14 13 12 13 13 12 11 11 12 13 14 13 14 15 14 14 15 15 18 20 19 19 18 17 16 15 16 17 16 15 16 17 17 17 15 14 14
26 24 24 26 26 27 27 27 27 27 27 26 25 23 22 21 20 19 18 17 17 16 16 17 18 19 20 19 19 18 18 17 17 16 15 15 15 14 14 14 15 15 15 16 16 16 15 15 14 13 14 14 14 13 13 13 13 14 15 15 15 15 14 15 16 16 17 19 20 19 17 17 18 17 18 19 19 18 18 19 19 18 17 16 16
27 25 25 26 27 27 27 27 27 27 26 26 25 24 22 21 21 20 19 18 17 16 15 16 17 18 19 19 19 19 18 18 18 18 17 17 17 16 16 16 15 15 16 16 17 17 16 15 14 14 15 15 15 15 14 14 14 15 15 15 15 14 14 13 14 15 16 17 18 18 18 18 19 19 18 20 21 21 21 21 20 19 19 19 18
30 28 26 26 26 27 27 26 26 26 26 25 24 23 23 22 22 21 20 20 18 17 16 16 16 17 18 18 18 18 18 18 18 18 18 17 17 18 18 17 16 15 15 15 15 16 17 17 16 16 16 16 16 16 15 15 15 15 15 15 14 14 14 13 13 15 17 18 18 19 20 20 20 20 19 20 22 23 24 26 25 23 22 22 21
30 29 28 27 26 27 27 26 25 25 25 24 23 23 22 22 22 22 21 21 20 19 18 17 16 16 17 18 18 19 19 19 18 18 18 17 17 17 17 17 17 16 16 16 16 16 17 17 18 18 17 17 17 17 16 16 16 16 16 15 15 14 13 13 14 16 18 20 21 21 22 22 22 21 21 22 24 24 25 28 29 28 27 25 24
30 30 31 30 28 28 27 26 25 25 24 23 22 21 21 20 20 21 21 22 22 21 20 20 19 19 18 18 18 20 21 21 20 18 18 17 17 16 15 15 15 15 15 16 17 17 18 18 18 18 18 18 17 17 16 16 17 17 17 16 15 15 15 15 16 18 19 22 23 22 23 24 24 23 24 24 24 25 26 28 29 30 30 30 27
28 28 29 30 31 31 29 27 26 25 24 23 22 21 20 19 19 20 21 22 23 23 23 22 22 22 21 19 19 20 22 22 21 20 19 18 18 18 17 16 14 14 14 15 15 16 17 18 19 19 19 19 18 18 17 16 17 17 17 16 16 17 17 18 18 19 20 22 23 23 25 26 25 25 26 25 24 25 26 27 29 30 31 33 30
25 25 25 25 28 31 30 27 26 25 25 25 24 22 22 21 21 21 21 21 23 24 25 25 25 25 24 23 22 21 22 22 22 22 22 21 21 21 21 20 18 17 16 16 15 14 14 15 16 17 18 19 19 19 18 18 18 18 18 18 18 18 19 20 20 21 22 24 25 25 27 28 27 26 26 25 25 26 26 26 28 29 30 33 33
20 21 22 22 23 25 25 24 24 24 24 25 26 25 24 24 24 25 24 23 23 25 25 26 27 27 27 26 25 24 23 22 22 23 24 24 24 24 24 24 24 22 21 20 18 17 16 15 14 14 15 15 16 17 18 18 19 20 20 20 20 20 21 21 22 23 23 25 27 28 28 29 29 27 27 28 27 27 27 26 27 29 29 31 33
15 16 17 19 20 19 20 21 21 21 23 24 25 25 25 25 26 26 26 26 25 26 26 27 27 28 28 28 28 27 27 25 24 24 25 25 25 26 27 27 28 27 25 24 23 22 21 20 19 18 16 16 16 17 18 18 19 20 21 22 23 23 23 23 24 24 25 27 29 30 29 29 31 30 28 28 28 28 28 28 28 29 30 31 32
10 13 13 15 15 15 16 18 18 19 20 21 23 23 24 24 24 24 25 25 26 26 27 27 27 27 28 29 29 29 29 28 27 26 26 26 26 26 26 27 27 28 26 25 24 23 22 22 22 21 20 20 20 21 22 22 22 23 23 24 24 24 24 24 24 25 26 27 29 30 28 28 30 30 28 28 29 29 29 30 30 29 30 31 31
4 5 8 10 11 11 12 13 13 15 17 18 18 19 20 20 20 20 21 22 23 25 25 26 26 26 28 29 29 29 29 28 28 27 27 27 27 27 27 26 25 25 25 23 22 22 21 22 22 23 22 22 22 23 24 25 26 27 28 28 27 27 26 26 25 25 26 27 29 30 29 29 30 31 30 29 30 30 29 30 30 29 30 31 31
6 4 2 4 4 5 8 10 9 11 14 16 16 16 16 16 16 16 16 17 18 19 20 21 23 24 26 27 28 28 28 27 27 26 26 26 27 27 27 26 25 25 25 25 24 24 24 25 25 26 27 27 27 27 26 27 28 30 31 31 31 31 30 29 28 28 29 29 30 31 31 31 31 31 30 29 29 28 28 29 29 28 29 31 32
10 9 6 3 1 2 4 5 5 6 8 11 13 13 14 14 13 13 13 14 14 14 15 16 17 19 20 22 24 25 26 27 26 25 23 23 23 24 25 26 26 27 27 26 26 26 26 27 28 29 30 32 32 31 30 30 31 32 34 34 35 35 35 32 31 31 31 32 33 34 34 34 33 32 30 28 27 26 27 29 28 26 28 30 32
9 9 9 7 5 4 4 4 4 5 4 5 6 8 10 12 12 12 13 13 13 13 14 14 14 14 15 17 19 21 23 25 25 25 23 22 22 22 23 24 26 26 27 27 27 27 28 29 30 31 33 33 33 32 31 31 31 33 34 35 37 38 38 35 34 33 33 33 35 35 36 36 35 33 31 28 26 25 27 29 28 26 27 30 32
7 7 7 7 6 6 6 5 4 4 3 3 3 3 5 7 10 11 11 12 12 13 13 13 13 13 14 15 16 18 20 21 22 23 24 24 25 24 24 26 27 27 28 28 29 29 31 32 32 32 33 33 32 32 31 31 33 34 34 34 36 38 37 36 36 36 35 35 36 36 36 35 34 32 30 28 27 26 27 29 28 26 28 30 30
5 4 5 5 5 5 5 4 3 2 2 2 3 2 2 4 6 7 9 10 12 13 13 13 13 14 15 15 15 16 16 17 18 20 22 23 25 25 26 27 28 29 29 30 31 31 32 33 33 32 32 32 32 32 32 32 33 34 34 34 37 37 35 36 38 38 38 38 38 38 37 36 33 31 30 29 28 28 28 29 28 27 28 29 29
2 1 2 4 4 4 4 4 3 1 1 2 2 1 1 2 3 4 5 7 8 10 11 11 13 14 14 14 14 14 14 15 16 17 19 20 21 22 23 24 25 26 27 28 28 29 30 30 30 29 30 30 32 33 33 32 32 32 32 33 35 35 34 35 37 37 38 39 39 39 38 37 35 32 30 29 28 27 27 27 27 26 27 27 27
2 2 2 1 2 3 3 2 2 2 2 1 2 1 1 1 1 2 2 3 5 6 7 7 9 10 10 9 9 10 11 12 14 15 15 16 17 17 18 19 20 21 22 23 24 24 25 26 26 27 29 30 31 32 31 30 29 30 31 32 32 32 33 34 36 36 37 38 38 39 38 37 36 34 32 31 28 25 25 25 25 26 26 26 27
5 5 5 5 5 5 5 6 6 6 4 2 2 2 2 2 2 2 3 4 4 4 5 5 7 8 7 5 4 4 5 6 9 11 13 13 14 15 16 17 17 18 19 20 21 22 23 24 25 26 27 28 29 29 29 29 28 29 30 30 31 31 32 34 35 36 37 38 38 38 37 36 35 34 32 31 28 25 25 26 26 27 28 29 29
9 8 8 8 8 7 7 7 7 6 5 4 4 4 4 3 3 3 4 4 4 3 4 5 6 8 8 7 6 4 3 2 4 6 9 11 13 14 16 17 18 18 18 19 20 21 22 22 23 24 25 25 26 27 28 28 28 28 28 29 30 31 32 34 35 36 37 37 37 37 35 33 33 33 31 29 29 28 28 28 28 29 30 32 32
11 11 10 10 9 9 7 7 6 5 5 6 6 6 6 5 5 4 4 5 5 5 5 6 7 7 7 7 7 6 5 4 5 7 8 9 11 12 14 16 17 18 19 19 21 22 22 23 23 24 24 25 25 26 27 27 26 26 27 27 27 29 30 31 32 33 35 36 35 35 34 32 32 32 31 31 31 32 33 32 32 32 32 33 33
12 12 11 11 11 11 10 9 7 6 6 8 8 8 8 7 7 6 6 6 6 7 7 8 9 10 10 10 10 10 10 9 10 12 11 11 11 11 13 15 16 18 18 19 21 22 23 23 24 25 25 25 26 27 27 27 27 26 25 25 25 27 27 26 25 27 31 34 35 35 34 32 31 32 33 34 35 35 36 35 35 34 34 34 34
13 12 12 11 11 11 11 11 11 9 8 9 10 10 10 10 10 9 9 8 8 9 9 10 11 12 13 14 14 15 15 16 16 17 15 14 13 13 13 14 16 17 18 19 21 22 22 22 23 24 25 25 25 25 26 26 26 26 24 24 24 25 25 23 21 22 26 30 33 35 35 34 34 35 35 35 34 34 34 33 33 32 31 30 32
14 14 13 13 12 12 12 12 13 12 11 11 11 11 12 12 12 12 12 13 13 13 13 13 13 15 16 17 18 19 19 20 21 20 17 16 15 15 15 15 16 17 19 20 21 21 21 22 22 22 23 24 24 24 24 24 24 24 23 23 22 22 22 23 22 22 23 25 28 31 32 32 33 33 33 32 31 30 30 30 30 29 27 27 29
14 15 15 15 14 13 13 13 13 13 13 12 12 12 13 14 14 14 14 14 15 17 17 17 17 17 17 18 20 22 23 22 22 20 18 16 17 17 16 16 17 18 20 21 21 21 21 21 22 22 23 23 23 23 23 22 22 21 20 18 18 18 19 22 24 24 23 23 26 28 28 29 30 29 29 29 29 29 29 30 30 29 27 27 28
14 14 14 15 14 13 13 13 13 14 14 14 13 12 13 14 15 16 16 15 15 16 18 19 20 20 20 19 19 20 22 23 22 21 19 17 17 17 17 17 18 19 20 21 21 21 21 21 21 21 22 22 21 21 21 21 21 21 19 16 15 14 16 19 22 22 22 22 23 25 26 27 28 29 29 30 30 30 30 31 31 30 29 28 29
14 13 13 13 13 13 13 13 13 14 14 15 15 15 14 14 15 16 18 18 18 17 17 17 17 19 20 21 20 20 21 21 20 20 20 19 19 18 17 18 19 20 21 21 20 20 20 20 20 20 20 20 19 18 18 18 19 19 19 17 14 13 14 17 19 20 21 22 24 25 26 27 28 29 30 31 31 31 30 31 31 30 29 29 30
14 13 13 13 13 13 14 14 14 14 14 14 15 16 17 17 16 16 16 17 18 18 18 17 16 15 16 18 20 20 19 19 19 20 20 20 21 21 19 19 20 21 22 21 19 18 18 18 19 19 19 19 17 15 14 14 14 15 15 15 14 13 14 16 18 19 21 23 24 25 26 27 27 28 28 28 28 28 28 28 28 28 29 29 30
15 14 14 13 13 14 14 14 14 13 14 14 14 15 16 18 19 19 18 17 17 17 16 16 16 16 16 16 16 17 16 16 17 17 18 18 20 21 21 20 20 21 21 21 19 17 16 17 18 19 19 19 17 15 13 13 14 15 15 15 16 15 16 17 18 19 21 23 24 25 25 25 25 25 26 25 25 26 25 25 25 26 27 28 29
15 15 14 14 14 15 15 15 14 13 13 13 14 15 15 16 18 19 20 20 19 18 17 16 15 15 15 14 13 13 13 13 13 13 14 15 16 17 18 18 19 20 20 20 19 18 19 19 20 20 21 21 21 21 20 18 18 18 17 17 17 17 17 17 18 20 22 23 23 25 25 25 25 25 25 25 25 25 25 24 24 25 25 25 26
16 15 14 14 15 16 16 15 15 14 14 14 14 15 15 15 15 16 17 18 19 19 18 16 15 14 13 12 11 10 10 12 13 13 14 14 13 13 13 15 16 18 18 19 19 20 22 23 24 24 24 24 25 25 26 25 24 23 23 22 21 20 20 19 19 21 22 23 24 24 25 26 26 26 26 27 26 25 25 24 23 23 23 23 24
17 17 16 17 18 18 19 18 17 16 15 15 15 15 15 15 15 15 15 16 16 17 17 16 15 14 12 12 12 12 12 13 15 16 16 16 16 15 15 15 16 17 17 19 20 21 24 26 27 28 29 29 29 29 29 29 29 27 27 27 27 27 26 23 22 22 23 25 25 26 26 27 26 25 25 26 25 23 23 22 22 22 23 23 24
17 17 18 19 20 21 21 21 20 18 17 17 17 17 17 17 17 17 16 16 16 16 16 16 16 15 12 11 11 13 14 16 17 18 18 19 19 19 18 18 19 19 20 21 22 23 26 28 31 32 34 34 34 34 33 32 32 31 30 30 30 31 31 30 28 27 28 29 30 30 29 28 25 22 21 22 22 21 21 22 24 24 25 25 26
17 18 18 20 21 23 23 23 21 20 19 19 19 19 20 20 20 19 19 18 18 18 18 17 17 17 15 12 11 12 14 16 16 16 16 17 17 18 18 19 20 21 22 23 24 26 27 29 31 33 35 36 37 37 36 35 34 34 34 33 33 33 34 33 32 31 31 33 34 33 32 31 27 23 22 24 25 26 27 28 28 28 28 28 28
19 18 18 19 21 22 23 24 23 22 22 22 21 22 22 22 23 22 22 21 21 21 20 19 18 17 16 15 14 15 16 17 16 15 16 16 17 19 19 20 22 23 24 26 27 28 29 29 30 31 32 34 35 36 36 36 35 35 35 35 35 34 34 35 34 33 32 33 34 34 33 34 33 31 30 30 32 34 35 36 34 32 31 31 31
21 21 20 20 20 21 22 22 22 22 22 21 21 22 24 24 24 24 24 24 23 23 23 22 21 19 17 17 17 18 19 20 19 19 19 20 21 22 22 23 23 25 26 27 28 29 30 30 30 30 30 31 32 33 34 35 35 35 35 36 36 35 35 36 36 36 35 34 34 34 35 35 36 37 37 37 38 39 41 41 39 37 35 35 35
21 22 22 21 21 20 20 19 18 18 18 18 19 21 22 23 23 24 24 25 25 25 25 25 25 24 22 20 19 20 20 21 21 21 21 22 23 24 24 24 25 26 27 28 29 30 30 30 30 31 31 32 33 34 35 35 35 35 35 36 36 36 37 37 37 38 38 37 36 35 35 36 36 38 39 40 41 42 43 43 43 41 39 38 37
22 22 21 21 21 20 19 17 16 16 16 18 19 20 20 19 19 20 21 22 24 25 26 26 27 27 26 24 23 23 23 23 22 21 21 21 22 23 23 23 24 25 26 28 29 30 30 31 31 32 33 34 34 36 36 36 36 36 36 37 37 38 38 38 39 39 41 41 39 37 36 36 37 37 39 40 41 42 43 44 44 44 43 42 40
21 20 19 19 19 19 17 17 17 17 18 18 17 16 16 15 16 18 19 21 22 23 24 25 27 27 27 27 26 26 26 25 25 24 23 21 21 22 23 24 24 25 26 27 28 29 30 32 32 33 33 34 34 35 37 38 38 38 37 37 38 39 39 40 40 41 43 44 43 41 39 38 37 38 39 39 40 41 42 42 43 44 44 43 42
19 18 17 17 17 16 16 16 17 17 17 16 15 15 15 16 17 18 18 19 20 21 22 24 25 26 26 27 27 27 27 26 26 26 25 24 23 24 25 26 26 27 27 27 28 28 30 31 32 33 33 33 34 35 37 38 38 39 38 38 39 40 40 40 40 41 43 45 45 44 42 40 39 38 39 39 40 40 41 41 42 42 42 42 41
17 16 16 15 15 15 15 15 15 14 14 15 15 15 16 17 18 19 19 19 20 21 23 24 25 25 26 26 26 27 28 28 27 27 26 25 24 25 27 28 28 29 29 28 28 28 30 31 32 33 34 34 35 36 37 38 39 40 40 39 39 39 40 39 39 40 42 44 45 45 43 42 41 39 39 39 39 40 40 40 40 40 40 40 40
14 14 15 14 14 13 13 12 12 12 13 14 15 16 17 18 19 19 19 19 20 22 23 24 25 26 27 27 28 28 29 29 29 28 27 26 26 26 28 29 30 29 29 29 29 31 32 33 34 35 35 35 35 36 37 39 40 41 41 40 38 38 38 38 38 39 40 42 43 43 43 43 42 41 39 39 39 39 40 39 39 39 39 39 39
13 14 14 12 11 10 10 10 10 11 12 14 15 16 17 18 19 20 20 21 21 22 22 24 26 28 29 29 29 28 26 26 25 24 23 24 25 25 27 28 29 28 28 29 31 33 35 36 37 38 38 37 36 36 37 38 39 40 41 40 38 37 36 36 37 37 38 39 40 42 42 43 43 41 40 39 39 39 38 38 38 38 38 38 39
13 14 12 10 9 9 9 9 10 11 14 16 16 16 17 18 19 21 22 22 23 24 26 28 29 29 29 29 29 27 24 23 22 21 20 21 23 24 26 28 29 30 30 31 33 35 36 38 39 40 39 38 37 36 36 37 37 38 39 38 37 36 35 36 36 37 37 37 39 40 42 42 42 42 41 40 38 38 37 37 36 36 36 37 37
13 12 11 10 10 9 9 9 10 13 16 17 17 17 17 18 19 20 21 22 24 25 27 29 30 29 28 28 28 27 26 25 24 23 22 23 25 26 28 30 32 33 34 35 36 37 37 38 39 40 40 39 37 36 36 36 36 36 36 37 36 36 35 35 36 37 37 38 39 39 41 42 42 41 40 39 37 36 36 35 34 33 34 34 34
12 12 12 11 10 10 10 10 11 13 15 15 16 16 17 17 19 20 21 23 25 26 27 27 27 27 27 28 28 28 28 28 28 28 28 27 28 29 31 33 35 36 36 37 38 37 36 37 39 40 41 40 38 36 35 34 34 34 35 35 36 36 35 36 37 37 37 38 39 39 39 40 40 39 38 37 36 34 33 32 31 30 30 30 29
12 12 12 11 11 11 11 11 12 13 14 15 15 16 17 18 19 20 21 22 23 24 25 25 25 25 25 26 26 27 28 30 31 32 32 31 31 31 31 32 34 35 35 35 35 35 36 38 40 41 42 40 38 36 34 33 33 33 34 35 35 35 34 35 37 37 36 37 38 39 39 39 39 38 36 35 33 32 30 29 28 28 26 25 23
Wind_Direction
218 217 217 214 213 214 217 218 219 222 225 227 227 228 232 236 239 241 241 238 236 236 234 230 230 231 233 234 235 239 239 239 242 246 247 248 245 245 245 246 251 256 256 257 258 259 260 262 261 260 263 266 270 274 275 277 280 283 287 286 279 289 306 313 314 309 306 312 317 315 316 315 311 307 307 307 307 304 302 302 303 304 306 307 308
221 219 218 216 214 215 217 219 221 223 226 228 228 229 231 233 235 238 238 236 234 235 236 236 236 239 242 246 247 246 245 245 246 249 251 251 249 247 248 250 253 255 256 256 258 262 264 266 268 266 265 271 278 282 281 282 284 285 285 282 274 276 292 304 309 308 305 307 312 312 313 315 313 311 314 316 316 313 311 313 316 316 314 310 309
224 223 219 217 217 216 217 219 222 224 227 229 230 231 232 234 234 235 236 235 234 235 236 237 239 242 248 253 254 252 251 250 249 251 255 255 255 253 252 254 257 258 259 260 261 265 269 271 271 270 267 272 278 283 285 284 285 285 284 279 272 271 280 291 297 302 303 304 309 312 313 314 314 316 319 321 322 321 319 321 324 325 321 314 308
226 226 222 219 218 218 220 221 222 224 226 229 231 232 232 233 235 236 237 237 238 240 241 242 243 246 250 254 255 256 259 259 257 256 255 255 257 258 256 256 258 260 263 264 264 266 268 268 268 267 267 270 274 280 284 285 284 284 282 278 273 272 275 280 285 291 295 298 304 310 313 316 320 323 324 324 324 321 319 321 325 326 320 312 309
227 229 228 224 221 220 221 222 223 224 225 228 231 232 233 233 233 235 237 238 239 241 245 248 250 252 254 256 259 261 264 266 267 266 265 263 260 259 258 254 255 259 262 265 266 266 266 266 266 266 264 266 271 276 280 283 283 281 280 278 276 274 275 276 279 282 286 292 302 312 318 323 325 327 328 327 324 321 320 323 326 326 321 314 310
227 230 231 228 224 223 223 223 224 225 226 227 229 231 233 233 234 235 236 237 238 239 242 246 250 254 256 259 262 265 268 270 273 275 276 274 271 266 263 258 254 255 259 262 265 267 268 269 270 270 267 267 270 273 275 280 282 282 281 281 279 278 280 282 282 283 286 294 303 312 319 324 325 326 330 330 326 326 327 328 328 327 325 322 316
226 231 233 230 227 226 225 225 226 227 228 229 229 230 231 232 233 234 235 236 237 239 242 244 247 252 255 257 261 264 268 272 276 278 277 277 277 274 270 267 263 260 260 262 264 266 268 271 272 273 271 271 273 275 276 276 278 280 282 283 283 284 286 289 289 288 291 295 301 306 311 316 319 322 326 326 324 326 328 328 329 329 327 323 318
223 229 230 229 228 227 227 227 228 230 230 229 228 229 230 232 233 234 236 236 238 240 243 246 249 252 254 256 260 262 264 268 271 274 275 276 278 278 276 274 273 271 270 269 269 270 270 271 273 274 274 274 275 278 278 278 277 277 276 278 280 279 279 282 285 289 292 295 297 300 303 306 310 314 318 319 319 321 324 324 326 328 327 322 317
220 224 226 226 227 228 227 229 231 231 229 228 227 228 231 234 236 237 238 238 240 242 246 249 251 251 252 254 257 260 262 264 266 267 270 273 276 278 280 280 280 280 279 278 277 276 274 274 274 275 276 277 277 278 278 280 280 278 276 275 272 269 269 273 279 286 291 293 295 297 298 300 303 307 309 311 312 315 318 319 320 323 325 322 318
219 223 225 226 228 227 225 225 227 228 228 229 231 230 232 236 238 240 241 241 242 244 247 252 253 254 254 254 256 258 260 262 263 264 265 269 272 274 275 277 280 283 284 286 285 284 282 279 276 276 277 277 278 279 279 279 279 279 279 277 272 268 269 272 276 282 287 290 291 294 295 296 298 301 303 305 308 310 313 316 317 318 320 319 317
222 227 231 233 232 230 226 222 222 223 226 230 232 233 234 237 240 241 242 244 245 245 247 250 253 256 257 257 258 259 260 261 263 263 264 264 267 271 273 275 277 278 281 285 288 290 290 287 283 279 279 279 280 281 281 281 280 279 278 276 273 271 270 272 274 277 282 285 287 290 292 293 296 298 300 302 306 309 312 313 314 316 316 316 315
223 230 236 236 233 230 227 223 220 220 223 227 230 232 234 237 239 240 242 244 247 247 247 249 251 254 256 258 260 260 261 262 263 264 264 263 264 267 270 273 274 275 277 279 282 286 287 288 287 284 282 284 285 286 286 286 285 284 282 279 275 271 270 270 272 275 279 282 284 285 287 290 293 295 297 301 305 309 310 310 311 312 311 309 310
210 217 226 229 229 229 231 232 228 226 227 228 230 231 232 235 237 239 241 243 246 247 248 249 252 254 255 257 259 260 261 262 263 264 264 264 265 266 268 270 271 273 274 275 278 280 282 284 284 282 281 282 284 286 288 288 289 288 287 284 280 276 273 272 272 275 278 279 281 282 283 286 289 291 294 299 303 305 306 306 307 307 305 304 304
178 189 199 208 215 222 229 233 234 234 233 231 231 230 230 232 235 238 240 242 245 248 249 250 252 253 254 255 257 258 260 262 264 265 265 266 267 268 269 270 270 271 272 273 275 277 279 282 283 283 281 280 280 280 281 283 284 285 285 284 283 282 280 277 274 274 275 276 277 279 282 284 286 289 293 295 297 299 300 301 302 302 300 299 299
131 173 183 183 187 197 205 211 218 224 226 227 227 226 227 230 233 236 239 242 245 248 249 250 250 250 252 253 253 253 255 259 264 267 267 267 266 267 269 269 268 266 266 266 267 269 273 277 280 282 283 283 282 282 281 282 282 282 282 281 281 281 281 279 279 278 277 277 278 280 284 287 287 290 292 292 292 294 296 296 297 297 296 296 296
100 95 153 179 181 188 191 191 193 200 207 212 216 219 221 224 229 234 238 242 245 248 250 250 250 250 251 252 251 249 251 254 259 264 267 268 267 266 267 266 263 259 259 261 263 266 270 274 277 281 283 285 286 285 284 283 282 282 281 279 278 278 277 276 278 280 281 282 284 286 289 290 290 290 290 290 290 291 292 291 290 292 294 294 294
96 91 99 133 182 192 192 192 183 176 184 195 205 212 217 223 229 234 238 243 248 250 251 251 251 251 253 255 254 253 253 254 256 260 264 267 268 267 265 263 259 257 258 261 263 267 271 274 278 281 284 287 289 289 288 287 285 284 282 280 278 277 275 275 276 278 280 283 286 288 291 292 293 291 289 287 287 288 288 285 285 288 291 291 290
107 105 106 111 123 126 122 132 148 151 153 170 193 210 220 229 235 238 241 244 247 250 252 251 251 252 254 255 256 256 255 256 257 259 261 264 266 267 265 262 260 260 261 263 265 268 272 275 279 282 285 288 290 290 290 290 288 286 284 283 281 278 275 275 276 278 280 283 285 287 289 291 292 291 287 283 282 283 282 281 284 288 288 287 289
112 120 123 121 126 130 125 118 123 128 127 139 167 201 221 233 239 239 241 242 243 245 248 249 250 252 253 254 256 257 257 258 259 260 262 263 265 265 265 264 264 264 265 266 268 270 274 277 279 283 286 288 288 288 288 288 286 285 283 281 280 278 276 276 278 279 281 282 283 284 285 286 287 286 283 280 278 278 278 279 283 286 286 286 288
91 110 143 147 143 140 138 135 125 106 110 128 133 155 201 224 235 239 242 244 242 240 240 241 242 244 247 250 253 257 259 261 263 262 262 263 265 266 267 269 269 269 270 271 273 274 276 279 281 283 285 285 285 285 285 284 282 282 282 280 278 278 278 277 278 280 281 282 282 283 284 284 283 281 280 278 277 277 277 279 281 283 285 286 287
58 58 143 159 163 161 152 147 142 107 50 95 112 140 217 219 224 232 242 245 238 232 230 231 233 237 242 245 247 250 253 255 258 261 262 263 265 268 271 273 275 275 276 276 278 279 279 280 281 281 281 281 282 282 282 281 280 279 281 282 280 277 276 276 276 278 280 281 282 283 284 284 281 278 276 277 278 279 279 280 282 284 286 287 289
305 310 305 261 214 204 205 214 239 283 309 107 129 123 80 107 175 202 215 213 205 204 210 217 222 224 228 233 237 241 247 249 251 255 260 264 266 268 271 273 275 277 278 278 279 279 278 278 278 278 278 279 279 280 280 282 283 282 283 285 284 280 276 274 275 276 277 279 281 282 283 282 279 276 276 277 278 278 278 280 283 285 285 286 288
279 280 284 283 275 267 268 268 273 283 289 247 185 164 135 124 121 137 171 184 186 190 193 195 199 201 201 201 208 218 235 250 258 260 262 264 266 267 268 269 270 272 274 275 275 275 276 277 277 277 278 279 280 281 283 286 288 288 287 287 287 286 282 278 276 275 276 277 279 280 280 280 278 277 277 279 280 279 279 280 281 282 283 284 284
279 279 279 278 277 278 280 283 285 286 275 240 213 199 190 176 156 151 170 186 203 216 202 189 191 196 199 202 204 208 219 263 298 289 276 269 267 266 266 267 267 268 271 273 274 276 277 279 279 279 280 282 283 286 287 289 291 291 290 289 288 286 284 282 280 278 276 276 277 278 277 274 273 274 276 279 281 282 281 281 281 283 284 285 285
281 282 282 281 282 283 282 282 284 281 265 246 230 217 209 201 189 182 185 195 213 225 220 214 215 218 224 228 230 237 254 289 325 323 301 280 270 266 265 267 269 270 272 274 276 278 279 281 283 284 286 287 288 288 289 290 292 293 293 293 290 289 289 289 287 283 279 276 275 273 270 268 268 271 274 278 281 282 283 284 284 285 285 285 284
284 283 282 281 282 283 282 280 276 267 256 249 243 238 233 225 216 209 204 209 221 227 228 232 238 245 252 258 261 264 271 284 304 313 305 289 279 272 268 268 271 274 277 278 278 279 280 282 285 287 289 290 290 289 290 291 292 294 295 295 296 296 296 298 297 289 281 275 270 268 268 270 272 273 275 279 281 282 285 287 288 287 286 286 285
284 283 283 282 281 280 279 278 276 270 261 252 248 248 248 245 242 238 235 235 239 244 246 248 251 255 261 266 270 273 277 283 292 298 297 288 281 277 275 274 275 278 281 282 282 283 285 287 289 291 291 291 291 291 291 291 291 292 292 293 294 295 297 301 302 293 284 277 271 270 272 276 277 278 280 282 283 284 286 289 290 291 292 293 290
285 286 285 286 287 286 284 281 278 276 271 262 256 256 256 255 253 251 253 256 257 259 261 264 266 267 269 272 274 275 278 283 287 291 291 285 279 276 275 276 278 280 281 282 285 288 291 293 294 293 293 292 292 292 293 294 294 294 291 289 288 286 289 295 296 291 288 287 283 281 281 281 281 282 282 283 283 285 288 292 294 297 300 302 296
289 290 289 290 292 292 291 289 285 281 276 269 263 260 262 265 264 258 255 257 260 262 263 265 270 273 275 278 280 280 281 283 285 286 286 282 278 277 277 277 278 280 282 284 287 291 293 295 296 296 295 296 297 298 299 300 300 300 298 297 295 289 284 285 288 289 291 293 292 290 288 287 285 284 284 284 285 287 291 293 295 298 300 299 296
298 295 293 294 295 294 294 292 290 290 288 284 276 265 258 261 266 266 262 258 259 262 263 264 267 271 273 277 280 282 284 285 285 285 284 279 275 274 277 278 278 279 282 287 291 294 295 296 298 300 302 303 304 307 310 312 312 311 308 308 310 305 292 283 282 283 284 284 284 285 287 287 287 287 288 289 290 290 291 291 292 294 295 294 293
303 300 299 298 298 298 298 295 293 293 294 294 291 283 271 261 259 263 266 264 261 261 262 263 265 267 269 270 270 272 276 282 285 285 282 278 274 274 275 275 275 279 283 288 293 297 299 301 303 304 305 306 310 316 321 325 327 326 322 320 318 315 306 297 292 289 286 284 282 281 281 282 283 285 288 291 292 292 290 289 289 290 291 291 290
299 300 301 300 299 298 296 296 296 296 294 293 293 292 287 278 268 262 263 266 266 264 261 260 262 263 265 267 267 267 269 272 276 279 278 277 276 277 276 273 273 278 283 287 291 297 304 308 309 307 305 306 310 317 322 324 324 324 322 319 314 308 305 305 305 301 296 294 292 288 285 285 286 288 291 294 296 294 291 288 287 289 289 288 286
292 293 295 295 294 292 290 291 293 295 296 295 294 293 294 292 287 280 274 272 273 273 270 268 267 266 268 271 275 278 276 273 273 277 280 280 278 277 275 273 273 278 283 287 291 296 302 307 310 312 311 308 305 303 301 300 302 306 307 306 303 299 296 296 297 295 294 295 295 292 290 291 291 292 293 295 296 295 292 288 286 287 287 286 285
291 288 287 287 287 286 285 286 287 288 292 296 297 298 299 299 299 297 293 289 286 284 282 280 276 272 271 272 279 285 283 276 273 279 286 289 287 283 280 279 280 283 286 288 291 293 296 301 306 311 313 312 308 304 298 292 289 290 293 294 293 292 291 291 290 289 292 294 294 294 295 296 295 294 295 296 297 295 292 289 288 288 287 287 288
290 284 278 276 277 278 279 279 280 282 286 290 292 295 298 299 301 301 300 300 299 297 295 293 289 284 277 268 266 270 273 270 270 274 281 286 289 290 288 287 287 288 288 288 289 290 294 299 303 305 307 308 308 308 306 302 297 291 288 286 285 283 286 288 287 287 291 295 297 300 304 305 302 299 297 296 297 296 293 291 292 291 289 289 290
289 284 277 271 268 270 272 273 274 276 280 284 288 291 293 295 297 297 296 296 296 298 299 298 296 294 286 272 263 261 263 267 268 269 273 279 285 290 292 289 286 286 288 289 290 291 294 298 301 303 304 305 305 306 306 304 302 297 292 288 283 280 280 282 282 284 287 291 295 301 306 308 309 306 300 297 298 299 299 299 299 296 293 294 295
288 284 280 276 272 271 272 274 276 277 278 280 283 285 287 289 290 292 292 293 292 293 296 296 295 295 292 284 272 267 269 273 277 279 282 285 287 289 289 287 286 285 287 289 291 293 295 297 299 301 302 303 304 304 304 302 300 298 295 291 287 283 282 280 278 278 281 284 289 294 300 304 308 308 302 297 296 297 299 304 306 303 299 300 300
290 286 284 283 282 280 280 282 284 285 284 283 282 283 285 287 287 287 287 287 288 291 294 296 296 296 296 293 287 281 282 286 289 290 290 289 288 288 287 287 288 289 290 291 292 293 293 294 295 296 298 300 301 302 303 303 301 298 296 293 289 287 285 284 282 279 278 279 281 285 291 295 296 296 293 290 290 291 293 297 300 298 295 295 295
291 290 288 286 284 283 284 286 287 287 286 285 283 282 283 284 285 285 285 285 285 287 290 291 292 293 295 295 292 289 288 288 288 286 285 286 288 288 287 288 289 291 292 294 295 296 296 296 297 297 297 298 299 300 301 303 303 301 299 296 292 288 286 286 286 283 281 278 277 278 282 285 287 287 285 284 285 287 289 292 294 294 293 292 291
293 293 292 290 287 283 281 282 284 285 286 287 285 282 280 278 279 280 282 283 285 286 287 288 288 288 290 291 291 291 289 287 284 282 281 283 285 287 289 290 291 292 293 294 295 297 298 299 299 299 299 300 301 302 304 305 306 305 304 301 297 292 289 288 288 287 285 282 279 277 276 278 280 281 282 282 283 285 287 289 291 292 292 292 292
294 294 294 294 292 289 286 285 285 287 288 287 285 283 281 279 279 280 281 282 282 283 283 284 285 286 286 285 285 286 285 284 283 281 280 280 283 285 288 290 291 292 294 295 296 297 298 298 298 299 300 302 303 305 306 307 308 308 307 305 303 299 294 291 290 289 288 285 282 279 276 275 276 277 278 279 281 283 284 286 288 289 290 290 291
295 294 293 293 294 293 292 290 288 287 286 286 287 289 290 289 286 284 283 281 280 280 282 283 284 284 284 283 282 280 278 279 281 281 281 283 285 287 288 289 290 291 292 293 295 297 297 297 297 298 299 301 303 304 306 307 307 308 308 307 306 303 300 296 293 292 290 288 284 281 278 275 274 274 276 277 279 280 281 282 284 286 287 288 289
297 295 294 294 294 295 295 293 290 289 290 293 295 298 299 296 293 292 291 289 288 288 288 287 287 286 285 284 282 280 278 278 279 280 281 283 286 289 291 292 293 293 293 293 294 295 295 295 296 298 299 300 302 303 304 306 307 307 307 306 306 305 303 300 296 294 292 289 286 282 280 278 276 274 274 276 278 279 280 281 282 284 285 287 289
300 301 300 298 297 296 295 292 291 292 294 298 300 301 302 303 302 303 303 301 299 297 294 291 291 292 292 290 287 284 281 280 280 280 281 283 285 287 290 291 292 292 292 291 291 291 293 295 297 298 299 299 300 301 303 304 305 306 305 304 303 303 303 301 298 295 293 290 287 284 281 279 278 277 275 275 277 279 280 281 283 285 286 287 288
306 308 307 305 302 298 295 295 297 298 299 301 302 304 305 304 302 302 302 300 299 298 296 295 295 295 295 295 294 290 286 283 281 280 280 281 283 284 285 288 290 290 290 289 289 290 292 295 297 298 299 299 299 300 301 302 303 303 303 302 301 300 300 300 298 295 293 290 288 285 281 279 279 279 278 277 278 279 280 282 284 285 286 286 287
312 313 312 309 305 303 303 303 303 302 302 302 301 300 299 296 295 296 298 300 301 301 301 300 298 296 294 294 294 295 295 292 288 285 284 284 285 286 287 288 289 288 287 287 288 291 293 295 297 298 299 299 298 298 298 299 299 300 301 301 299 297 296 296 295 293 291 289 287 284 282 280 278 279 280 280 280 281 281 282 283 284 285 285 286
314 315 314 310 307 305 302 299 300 299 294 291 292 294 295 295 295 295 295 295 298 300 299 296 295 296 297 296 295 295 298 300 298 295 293 291 289 289 288 285 283 283 284 287 290 293 294 295 296 298 298 297 296 296 296 297 297 297 298 300 299 295 292 290 290 289 288 287 285 282 280 279 278 278 280 281 282 282 282 282 283 284 285 286 286
318 317 313 306 302 299 294 294 296 290 281 280 286 293 296 297 297 296 295 296 297 296 294 293 294 296 299 299 296 293 293 295 295 294 290 286 282 280 279 278 279 282 287 290 292 293 293 294 295 297 297 295 293 294 295 296 297 297 298 299 297 294 289 286 285 285 285 283 281 280 279 278 278 278 278 279 281 283 283 283 282 284 285 285 285
324 323 320 314 307 301 295 294 290 284 280 282 287 291 293 295 297 298 298 298 297 295 293 293 294 295 297 298 295 290 286 286 288 287 284 280 278 276 278 280 284 287 290 291 291 291 292 293 295 296 295 293 292 292 293 294 296 297 298 297 295 292 287 283 282 282 282 281 279 277 277 277 277 277 278 279 280 282 283 283 284 284 285 285 285
330 332 333 329 322 314 308 302 296 293 295 299 300 298 297 298 299 298 298 298 297 297 296 295 294 293 293 293 293 290 286 284 284 285 284 284 283 282 281 282 284 286 287 287 287 288 290 292 294 295 294 292 290 289 289 291 293 295 296 296 294 291 286 282 280 280 280 279 278 276 275 275 275 276 277 278 280 281 283 284 284 284 284 282 281
331 335 337 336 334 330 325 320 317 317 317 316 313 309 306 304 303 302 302 301 301 301 302 301 299 297 295 294 294 293 291 288 287 286 286 286 286 286 284 283 283 282 281 282 285 288 291 293 293 293 292 290 288 286 286 287 290 292 293 294 293 291 286 282 279 279 279 278 276 275 274 274 274 275 276 279 280 281 282 283 281 279 276 274 273
Height
1571 1573 1574 1576 1578 1580 1582 1584 1585 1587 1588 1590 1591 1592 1593 1594 1595 1596 1597 1598 1599 1600 1601 1601 1602 1603 1604 1605 1605 1606 1607 1607 1608 1608 1609 1609 1610 1611 1611 1612 1612 1613 1613 1614 1614 1615 1615 1615 1615 1616 1616 1616 1616 1616 1616 1616 1616 1616 1616 1616 1616 1615 1615 1614 1613 1612 1612 1613 1612 1612 1612 1611 1610 1609 1608 1607 1607 1606 1605 1604 1603 1601 1600 1599 1598
1570 1572 1573 1575 1577 1578 1581 1582 1584 1586 1587 1588 1589 1590 1591 1592 1594 1595 1596 1597 1598 1599 1600 1600 1601 1602 1602 1603 1604 1605 1605 1606 1606 1607 1607 1608 1609 1609 1610 1611 1611 1612 1612 1613 1613 1614 1614 1614 1614 1615 1615 1615 1615 1615 1615 1615 1615 1615 1615 1615 1615 1614 1614 1614 1613 1612 1611 1611 1611 1611 1610 1610 1609 1608 1607 1606 1605 1604 1603 1602 1601 1600 1599 1597 1596
1568 1570 1572 1574 1576 1578 1579 1581 1582 1584 1585 1586 1587 1588 1590 1591 1592 1593 1594 1596 1597 1597 1598 1599 1600 1600 1601 1602 1603 1604 1604 1605 1605 1606 1606 1607 1608 1608 1609 1610 1610 1611 1611 1611 1612 1613 1613 1613 1613 1613 1614 1614 1614 1614 1614 1614 1614 1614 1614 1613 1613 1613 1613 1612 1612 1611 1610 1609 1609 1609 1609 1608 1607 1607 1606 1605 1604 1603 1602 1601 1600 1599 1598 1596 1595
1568 1570 1571 1573 1575 1576 1578 1579 1580 1581 1582 1584 1585 1586 1588 1589 1591 1592 1593 1594 1595 1596 1597 1597 1598 1599 1599 1601 1602 1603 1603 1604 1604 1605 1605 1606 1607 1608 1608 1609 1609 1610 1610 1610 1611 1611 1611 1611 1612 1612 1612 1612 1612 1612 1612 1613 1613 1612 1612 1612 1612 1612 1612 1611 1611 1610 1609 1608 1607 1607 1607 1607 1606 1606 1605 1604 1603 1602 1601 1600 1599 1598 1596 1595 1594
1567 1568 1570 1572 1573 1574 1576 1577 1578 1579 1580 1582 1583 1585 1586 1587 1589 1590 1591 1592 1593 1594 1595 1596 1596 1597 1598 1599 1600 1601 1602 1603 1604 1604 1605 1605 1606 1606 1607 1607 1608 1608 1609 1609 1610 1610 1610 1610 1610 1611 1610 1610 1610 1611 1611 1611 1611 1611 1611 1611 1610 1610 1610 1610 1609 1609 1608 1607 1606 1606 1606 1605 1605 1604 1604 1603 1601 1600 1600 1599 1598 1596 1595 1594 1593
1565 1566 1567 1569 1571 1572 1573 1575 1576 1577 1579 1580 1581 1583 1585 1586 1587 1588 1589 1590 1591 1592 1593 1594 1595 1595 1596 1597 1598 1599 1601 1602 1602 1603 1604 1604 1604 1605 1606 1606 1607 1607 1607 1608 1608 1609 1609 1609 1609 1609 1609 1609 1609 1609 1609 1609 1609 1609 1609 1609 1609 1609 1608 1608 1608 1607 1607 1606 1605 1604 1604 1604 1603 1602 1602 1601 1600 1599 1598 1597 1596 1595 1593 1592 1591
1563 1564 1565 1567 1568 1570 1571 1573 1575 1576 1577 1578 1580 1581 1583 1584 1585 1586 1587 1588 1589 1590 1591 1592 1593 1593 1595 1596 1597 1598 1599 1600 1601 1601 1602 1603 1603 1604 1604 1604 1605 1605 1605 1606 1606 1607 1607 1607 1607 1607 1607 1607 1607 1608 1608 1608 1607 1607 1607 1607 1607 1607 1607 1606 1606 1606 1605 1604 1604 1603 1602 1602 1602 1601 1600 1600 1598 1597 1596 1594 1593 1593 1592 1590 1588
1560 1560 1562 1564 1566 1568 1570 1572 1573 1574 1576 1577 1578 1579 1580 1582 1583 1584 1585 1586 1587 1588 1589 1590 1591 1592 1593 1593 1594 1596 1597 1598 1599 1599 1600 1601 1602 1602 1602 1603 1603 1603 1603 1604 1604 1605 1605 1605 1605 1605 1605 1606 1606 1606 1606 1606 1606 1605 1605 1606 1605 1605 1605 1605 1604 1604 1603 1602 1602 1601 1600 1600 1600 1599 1599 1598 1597 1596 1595 1593 1591 1590 1589 1588 1586
1558 1558 1560 1562 1564 1566 1568 1570 1571 1573 1574 1575 1576 1577 1579 1580 1581 1582 1583 1584 1585 1586 1587 1588 1589 1589 1590 1591 1592 1593 1594 1595 1597 1598 1598 1599 1600 1600 1600 1601 1601 1601 1601 1602 1602 1602 1603 1603 1603 1603 1604 1604 1604 1604 1604 1604 1604 1603 1603 1603 1603 1603 1603 1602 1602 1602 1601 1600 1599 1599 1598 1597 1597 1597 1596 1596 1595 1594 1593 1592 1589 1588 1586 1585 1584
1557 1557 1558 1560 1563 1565 1566 1567 1569 1570 1571 1573 1574 1575 1577 1578 1579 1580 1581 1582 1583 1583 1585 1586 1586 1587 1588 1589 1590 1591 1591 1593 1594 1595 1596 1597 1598 1598 1599 1599 1599 1599 1600 1600 1600 1600 1600 1601 1601 1601 1602 1602 1602 1602 1602 1602 1602 1601 1601 1601 1601 1601 1600 1600 1600 1599 1599 1597 1597 1597 1596 1595 1595 1594 1593 1593 1593 1592 1591 1589 1587 1586 1584 1581 1580
1555 1556 1557 1559 1562 1564 1564 1565 1565 1567 1569 1570 1572 1573 1575 1576 1577 1578 1579 1580 1581 1581 1583 1584 1584 1585 1586 1586 1587 1588 1589 1590 1591 1593 1594 1595 1596 1596 1596 1597 1597 1597 1598 1598 1598 1598 1598 1598 1599 1599 1599 1599 1599 1599 1599 1599 1599 1599 1599 1599 1599 1599 1598 1597 1597 1597 1596 1595 1594 1594 1593 1592 1592 1592 1591 1590 1590 1589 1588 1587 1585 1583 1582 1579 1577
1553 1554 1555 1559 1562 1563 1564 1564 1563 1564 1566 1568 1569 1571 1572 1573 1574 1575 1576 1577 1578 1579 1580 1581 1582 1583 1584 1584 1585 1585 1586 1588 1589 1590 1591 1592 1593 1593 1594 1594 1595 1595 1595 1595 1596 1596 1596 1596 1596 1596 1597 1597 1597 1597 1597 1597 1597 1596 1596 1596 1596 1596 1595 1595 1594 1593 1593 1592 1591 1590 1590 1589 1589 1589 1588 1587 1587 1586 1585 1584 1583 1581 1580 1578 1575
1551 1553 1555 1558 1561 1563 1563 1563 1562 1562 1563 1565 1567 1568 1570 1571 1572 1573 1574 1575 1576 1577 1578 1579 1580 1581 1582 1582 1582 1583 1584 1585 1586 1587 1588 1589 1590 1591 1591 1591 1592 1592 1592 1593 1593 1593 1593 1594 1594 1594 1594 1594 1594 1594 1594 1594 1594 1594 1594 1593 1593 1593 1592 1592 1591 1590 1590 1589 1587 1586 1587 1586 1585 1585 1586 1585 1584 1583 1582 1581 1580 1579 1577 1575 1573
1552 1554 1556 1557 1559 1561 1562 1562 1561 1561 1562 1564 1565 1566 1567 1568 1569 1570 1571 1572 1573 1574 1575 1576 1577 1578 1579 1580 1580 1580 1581 1582 1583 1584 1585 1586 1587 1588 1588 1589 1589 1589 1590 1590 1590 1591 1591 1591 1591 1591 1591 1592 1592 1591 1591 1591 1591 1590 1590 1590 1590 1590 1589 1589 1589 1588 1587 1586 1584 1583 1583 1584 1582 1582 1583 1583 1581 1580 1579 1577 1577 1575 1574 1572 1570
1554 1556 1556 1556 1557 1559 1560 1560 1560 1560 1561 1562 1563 1564 1565 1566 1567 1568 1569 1570 1571 1571 1572 1573 1574 1575 1576 1576 1577 1577 1578 1579 1580 1581 1582 1583 1584 1585 1585 1586 1586 1586 1587 1587 1588 1588 1588 1589 1588 1588 1589 1589 1589 1589 1589 1588 1588 1587 1587 1586 1586 1586 1586 1586 1586 1585 1585 1584 1582 1581 1581 1581 1580 1579 1579 1579 1578 1577 1576 1574 1573 1572 1570 1568 1567
1555 1556 1557 1557 1558 1559 1559 1559 1558 1559 1559 1560 1562 1562 1563 1564 1565 1566 1567 1567 1568 1569 1570 1570 1571 1572 1573 1573 1574 1575 1575 1576 1577 1578 1579 1580 1581 1582 1583 1583 1583 1583 1584 1584 1585 1585 1585 1585 1585 1585 1585 1585 1586 1586 1586 1586 1585 1584 1583 1582 1582 1581 1581 1582 1582 1582 1582 1581 1580 1579 1578 1578 1577 1576 1576 1575 1574 1573 1572 1570 1569 1568 1566 1564 1562
1557 1558 1558 1558 1559 1559 1559 1559 1559 1559 1559 1559 1559 1560 1561 1561 1562 1564 1565 1565 1566 1567 1568 1568 1569 1569 1570 1571 1572 1573 1573 1574 1575 1575 1576 1577 1578 1579 1579 1580 1580 1580 1580 1581 1581 1582 1582 1582 1582 1582 1582 1581 1582 1582 1583 1582 1581 1580 1579 1578 1577 1577 1576 1576 1577 1578 1578 1578 1577 1576 1575 1574 1573 1573 1572 1571 1571 1570 1568 1566 1565 1565 1564 1561 1559
1559 1560 1561 1562 1562 1562 1561 1561 1560 1560 1559 1558 1558 1558 1559 1559 1560 1561 1562 1563 1564 1565 1566 1566 1567 1567 1568 1568 1569 1570 1571 1572 1573 1573 1574 1575 1576 1576 1576 1577 1577 1577 1577 1578 1578 1579 1579 1579 1579 1579 1578 1578 1578 1578 1578 1578 1576 1575 1574 1573 1572 1571 1570 1572 1573 1573 1573 1573 1573 1572 1571 1570 1570 1569 1568 1568 1567 1567 1564 1562 1562 1562 1560 1558 1556
1561 1562 1563 1563 1563 1563 1562 1562 1561 1560 1559 1558 1557 1557 1558 1558 1558 1559 1560 1561 1562 1563 1564 1565 1565 1565 1566 1566 1567 1567 1568 1569 1570 1571 1572 1572 1573 1573 1573 1574 1574 1574 1575 1575 1575 1576 1576 1576 1576 1576 1575 1574 1574 1574 1573 1573 1571 1569 1569 1568 1566 1565 1566 1567 1568 1567 1568 1568 1567 1567 1567 1566 1566 1565 1564 1564 1564 1563 1561 1559 1559 1559 1557 1555 1554
1561 1561 1562 1562 1562 1562 1562 1561 1561 1560 1559 1559 1558 1557 1557 1557 1557 1557 1558 1559 1560 1561 1561 1562 1563 1563 1564 1565 1565 1566 1566 1567 1567 1568 1569 1569 1569 1570 1570 1570 1571 1571 1571 1571 1571 1572 1572 1572 1572 1572 1571 1570 1569 1569 1569 1568 1567 1565 1564 1563 1561 1561 1562 1563 1562 1562 1563 1562 1562 1562 1562 1562 1562 1561 1560 1560 1560 1559 1558 1557 1556 1556 1554 1553 1552
1561 1561 1561 1561 1561 1561 1561 1561 1561 1560 1560 1559 1558 1558 1557 1557 1557 1557 1557 1558 1558 1559 1559 1560 1560 1561 1562 1563 1563 1564 1564 1564 1565 1565 1565 1566 1566 1566 1567 1567 1567 1567 1567 1567 1567 1567 1567 1568 1568 1567 1567 1566 1565 1564 1564 1564 1563 1561 1561 1559 1558 1558 1558 1558 1558 1558 1558 1558 1558 1558 1558 1557 1557 1557 1556 1556 1556 1556 1555 1554 1553 1552 1551 1550 1549
1560 1560 1560 1560 1561 1561 1561 1561 1560 1559 1559 1559 1558 1558 1557 1557 1557 1557 1557 1557 1558 1558 1558 1559 1559 1560 1560 1561 1562 1562 1562 1562 1562 1562 1562 1563 1563 1563 1563 1563 1563 1563 1563 1563 1563 1563 1563 1563 1563 1562 1562 1562 1561 1561 1560 1560 1559 1558 1557 1557 1556 1555 1554 1553 1554 1554 1554 1554 1555 1554 1554 1554 1553 1553 1553 1552 1552 1552 1552 1551 1550 1549 1547 1546 1545
1559 1559 1559 1559 1560 1560 1560 1560 1559 1559 1558 1558 1557 1557 1556 1556 1556 1556 1556 1557 1557 1558 1558 1558 1559 1559 1559 1560 1560 1561 1561 1561 1561 1561 1561 1561 1561 1560 1560 1560 1560 1559 1559 1559 1559 1559 1559 1558 1558 1558 1558 1558 1557 1557 1556 1555 1555 1554 1554 1553 1552 1552 1551 1550 1550 1551 1551 1551 1551 1550 1550 1550 1550 1549 1549 1549 1549 1549 1548 1547 1546 1545 1543 1542 1541
1557 1558 1558 1558 1558 1558 1559 1558 1558 1558 1557 1557 1556 1556 1555 1555 1555 1555 1555 1556 1556 1557 1558 1558 1558 1558 1558 1559 1559 1559 1560 1560 1559 1559 1559 1559 1559 1558 1558 1557 1557 1556 1556 1556 1556 1555 1555 1555 1555 1555 1554 1554 1553 1553 1552 1552 1551 1550 1550 1550 1549 1548 1548 1547 1547 1548 1548 1548 1547 1547 1546 1546 1545 1545 1544 1545 1544 1544 1543 1542 1541 1540 1539 1537 1537
1555 1555 1555 1555 1556 1556 1556 1556 1556 1556 1556 1555 1555 1554 1554 1554 1554 1554 1554 1555 1555 1556 1557 1557 1558 1557 1557 1557 1557 1558 1558 1558 1558 1558 1557 1557 1556 1556 1555 1555 1554 1553 1553 1553 1553 1553 1552 1552 1551 1551 1551 1550 1550 1549 1548 1548 1548 1547 1547 1547 1546 1545 1545 1545 1545 1545 1544 1544 1543 1542 1541 1540 1540 1540 1540 1540 1540 1539 1538 1537 1536 1536 1534 1533 1532
1553 1553 1553 1553 1553 1553 1553 1554 1554 1554 1554 1553 1553 1552 1552 1552 1553 1553 1553 1554 1554 1555 1556 1556 1556 1556 1556 1556 1556 1556 1556 1556 1556 1556 1555 1555 1554 1553 1553 1552 1551 1551 1551 1550 1550 1549 1549 1549 1548 1548 1547 1547 1546 1545 1545 1544 1544 1543 1543 1543 1543 1542 1542 1542 1542 1542 1540 1538 1537 1536 1535 1536 1536 1536 1536 1536 1535 1534 1534 1533 1532 1530 1530 1528 1527
1550 1550 1551 1551 1551 1551 1551 1551 1551 1551 1551 1551 1551 1551 1551 1551 1552 1552 1552 1553 1553 1553 1554 1554 1554 1554 1554 1554 1554 1554 1554 1554 1554 1554 1553 1553 1552 1551 1550 1549 1549 1548 1548 1547 1547 1546 1546 1546 1546 1545 1544 1543 1543 1542 1541 1540 1540 1539 1540 1540 1540 1539 1539 1539 1540 1538 1534 1532 1531 1531 1532 1533 1533 1533 1532 1532 1530 1530 1530 1529 1527 1526 1525 1524 1522
1548 1548 1548 1549 1549 1549 1549 1549 1549 1549 1549 1550 1550 1549 1549 1549 1550 1551 1551 1551 1551 1551 1551 1551 1552 1552 1552 1551 1551 1551 1551 1551 1551 1551 1551 1550 1549 1548 1548 1547 1547 1546 1545 1544 1544 1544 1543 1543 1543 1542 1540 1539 1539 1538 1537 1537 1536 1536 1536 1536 1536 1536 1535 1535 1535 1533 1531 1530 1530 1530 1530 1530 1529 1528 1528 1527 1526 1526 1526 1525 1523 1522 1521 1520 1518
1547 1546 1546 1546 1547 1547 1547 1547 1547 1547 1547 1548 1548 1548 1548 1547 1548 1548 1549 1549 1549 1549 1549 1549 1549 1549 1549 1549 1549 1548 1548 1548 1548 1548 1548 1547 1546 1545 1545 1544 1544 1543 1542 1541 1541 1541 1540 1539 1539 1538 1537 1536 1535 1534 1534 1533 1533 1533 1533 1532 1532 1532 1532 1531 1530 1529 1529 1529 1528 1527 1527 1526 1525 1525 1524 1523 1522 1523 1522 1521 1519 1518 1517 1516 1514
1545 1545 1545 1544 1545 1545 1545 1545 1545 1545 1545 1545 1546 1546 1547 1546 1546 1546 1546 1547 1547 1547 1547 1547 1547 1547 1547 1547 1546 1546 1545 1545 1545 1545 1545 1544 1543 1543 1542 1542 1541 1540 1539 1538 1538 1537 1536 1536 1535 1535 1534 1533 1532 1531 1531 1530 1530 1529 1529 1529 1529 1529 1528 1528 1526 1526 1526 1526 1525 1524 1524 1523 1521 1521 1520 1519 1519 1519 1518 1517 1515 1514 1513 1511 1509
1544 1544 1543 1543 1543 1543 1543 1543 1543 1543 1543 1543 1543 1543 1544 1544 1544 1544 1544 1544 1544 1545 1545 1545 1545 1545 1544 1544 1544 1543 1543 1542 1542 1542 1541 1541 1540 1540 1540 1539 1538 1537 1536 1536 1535 1534 1533 1533 1533 1532 1531 1531 1530 1530 1529 1528 1528 1527 1527 1527 1527 1526 1526 1525 1524 1523 1522 1521 1521 1520 1519 1518 1518 1517 1516 1515 1514 1514 1513 1512 1511 1509 1508 1507 1505
1543 1543 1543 1542 1542 1541 1541 1541 1541 1541 1541 1541 1541 1540 1540 1541 1541 1541 1541 1541 1541 1541 1542 1542 1542 1542 1542 1541 1540 1540 1540 1540 1539 1539 1538 1538 1538 1537 1537 1537 1536 1535 1534 1533 1532 1532 1532 1531 1531 1530 1529 1529 1528 1528 1527 1527 1526 1525 1525 1524 1524 1524 1523 1522 1522 1521 1520 1518 1517 1516 1515 1514 1514 1512 1512 1511 1510 1509 1508 1507 1506 1505 1504 1503 1501
1542 1542 1542 1542 1541 1541 1540 1540 1540 1540 1539 1539 1539 1539 1539 1538 1538 1538 1538 1538 1538 1538 1539 1539 1539 1539 1539 1539 1538 1538 1538 1537 1537 1536 1536 1535 1535 1535 1534 1534 1533 1533 1532 1530 1530 1530 1530 1530 1529 1528 1527 1527 1526 1525 1525 1524 1524 1523 1522 1522 1521 1521 1521 1520 1520 1518 1517 1516 1514 1513 1512 1511 1510 1508 1507 1506 1505 1504 1503 1503 1502 1501 1499 1498 1497
1541 1541 1541 1540 1540 1539 1539 1539 1539 1538 1538 1538 1538 1538 1538 1538 1537 1536 1535 1535 1535 1535 1535 1536 1536 1536 1536 1536 1536 1536 1536 1535 1535 1534 1534 1533 1533 1533 1532 1532 1531 1530 1530 1529 1528 1528 1528 1527 1526 1525 1525 1524 1524 1523 1522 1522 1521 1520 1520 1519 1519 1518 1518 1518 1517 1516 1514 1513 1511 1510 1508 1507 1506 1505 1503 1502 1501 1500 1499 1498 1498 1497 1495 1494 1493
1539 1539 1539 1539 1538 1538 1537 1537 1537 1537 1537 1537 1537 1537 1537 1537 1536 1536 1535 1534 1533 1533 1533 1533 1533 1533 1534 1534 1534 1534 1534 1534 1533 1532 1532 1531 1531 1530 1530 1530 1529 1528 1527 1527 1526 1525 1524 1524 1523 1522 1522 1521 1521 1520 1519 1518 1518 1517 1516 1515 1515 1515 1514 1514 1514 1512 1511 1509 1508 1507 1505 1504 1502 1501 1500 1498 1497 1496 1495 1495 1494 1493 1492 1491 1490
1537 1537 1537 1536 1536 1535 1535 1535 1536 1536 1536 1536 1536 1535 1535 1535 1535 1534 1534 1533 1532 1531 1531 1531 1531 1531 1531 1531 1531 1531 1531 1531 1530 1530 1529 1529 1528 1528 1527 1527 1526 1526 1525 1524 1524 1523 1522 1520 1519 1519 1518 1518 1517 1517 1516 1515 1514 1513 1513 1512 1511 1510 1510 1510 1510 1509 1508 1506 1505 1504 1502 1501 1499 1498 1497 1495 1494 1493 1492 1491 1491 1490 1490 1489 1488
1534 1534 1533 1533 1533 1533 1533 1533 1533 1534 1534 1533 1533 1533 1533 1533 1532 1532 1531 1531 1530 1530 1529 1529 1529 1528 1529 1529 1529 1529 1528 1527 1527 1527 1526 1526 1525 1525 1525 1524 1524 1523 1523 1522 1521 1521 1519 1518 1517 1516 1515 1514 1514 1513 1513 1512 1511 1510 1509 1508 1507 1506 1505 1505 1505 1505 1504 1502 1501 1500 1499 1498 1496 1495 1494 1492 1490 1489 1488 1488 1487 1487 1486 1486 1485
1532 1531 1531 1531 1530 1530 1530 1530 1531 1531 1531 1531 1531 1530 1530 1529 1529 1529 1529 1528 1528 1527 1527 1526 1526 1526 1526 1526 1526 1526 1525 1524 1524 1524 1524 1523 1523 1522 1522 1521 1521 1520 1520 1519 1519 1518 1517 1516 1515 1514 1512 1511 1510 1510 1509 1508 1507 1506 1505 1504 1503 1502 1501 1500 1501 1501 1500 1498 1497 1496 1496 1494 1493 1492 1491 1489 1487 1486 1485 1485 1485 1484 1483 1483 1482
1530 1529 1529 1529 1528 1527 1527 1527 1528 1528 1528 1528 1527 1527 1526 1526 1526 1525 1525 1525 1524 1524 1524 1523 1523 1523 1523 1523 1523 1523 1522 1521 1521 1521 1521 1520 1520 1520 1519 1519 1518 1518 1517 1516 1516 1515 1514 1514 1513 1512 1510 1509 1508 1506 1505 1504 1503 1502 1501 1500 1498 1498 1497 1496 1496 1496 1495 1494 1493 1492 1491 1490 1489 1488 1487 1485 1484 1482 1481 1480 1480 1480 1479 1478 1478
1528 1527 1527 1526 1526 1526 1525 1525 1525 1525 1524 1524 1524 1523 1523 1523 1522 1522 1521 1521 1520 1520 1520 1520 1520 1520 1520 1520 1520 1519 1518 1518 1518 1518 1518 1517 1517 1517 1517 1516 1516 1515 1514 1514 1513 1512 1511 1510 1509 1508 1507 1506 1504 1503 1502 1500 1499 1498 1497 1496 1495 1494 1493 1492 1491 1490 1490 1489 1488 1487 1486 1485 1484 1483 1482 1480 1479 1478 1476 1475 1474 1474 1473 1472 1471
1526 1525 1525 1524 1524 1523 1523 1523 1522 1522 1522 1521 1520 1520 1519 1519 1519 1518 1518 1517 1516 1516 1516 1515 1516 1516 1516 1517 1517 1516 1515 1514 1514 1514 1514 1514 1514 1514 1513 1513 1513 1512 1511 1510 1509 1508 1507 1506 1505 1504 1503 1502 1501 1499 1498 1497 1495 1494 1492 1492 1490 1489 1489 1488 1487 1486 1485 1484 1483 1482 1481 1480 1479 1477 1476 1475 1474 1473 1471 1470 1468 1468 1467 1466 1466
1524 1524 1523 1523 1522 1521 1521 1520 1520 1519 1519 1518 1517 1517 1517 1516 1516 1515 1514 1513 1513 1512 1511 1511 1511 1511 1512 1512 1513 1512 1511 1510 1510 1510 1510 1510 1510 1510 1509 1509 1509 1508 1508 1507 1506 1504 1503 1502 1501 1500 1499 1498 1497 1495 1494 1493 1491 1490 1488 1487 1486 1485 1484 1484 1483 1482 1480 1479 1478 1477 1476 1475 1474 1472 1471 1470 1469 1467 1466 1465 1463 1462 1461 1460 1460
1522 1522 1521 1521 1520 1519 1519 1518 1517 1517 1516 1516 1515 1515 1514 1514 1513 1512 1511 1510 1509 1509 1508 1507 1507 1507 1507 1507 1508 1507 1507 1507 1506 1506 1506 1506 1506 1505 1505 1505 1505 1504 1504 1503 1502 1500 1499 1497 1497 1496 1495 1494 1493 1492 1490 1489 1487 1486 1484 1483 1481 1480 1480 1479 1479 1478 1476 1473 1472 1472 1471 1470 1469 1468 1466 1465 1463 1462 1460 1459 1458 1456 1455 1454 1454
1520 1519 1519 1519 1518 1517 1517 1516 1515 1515 1514 1514 1514 1513 1512 1512 1511 1510 1509 1508 1507 1506 1505 1504 1503 1502 1502 1502 1502 1502 1502 1502 1502 1502 1501 1501 1501 1501 1501 1501 1501 1500 1500 1499 1498 1497 1495 1493 1492 1491 1491 1490 1489 1488 1486 1485 1483 1482 1480 1479 1477 1476 1475 1474 1473 1472 1470 1468 1467 1466 1465 1464 1463 1462 1461 1460 1458 1456 1455 1454 1452 1451 1450 1449 1448
1518 1517 1517 1516 1516 1515 1515 1514 1514 1513 1513 1513 1512 1512 1511 1510 1509 1508 1507 1506 1505 1503 1502 1501 1500 1499 1498 1498 1497 1497 1497 1497 1497 1497 1497 1497 1497 1497 1497 1497 1496 1495 1495 1494 1494 1492 1491 1490 1488 1487 1486 1485 1484 1483 1482 1481 1479 1478 1476 1474 1472 1471 1470 1469 1468 1467 1465 1463 1461 1460 1459 1458 1457 1457 1456 1455 1453 1451 1450 1448 1448 1446 1445 1444 1443
1516 1515 1515 1514 1514 1513 1513 1513 1512 1512 1512 1511 1511 1510 1509 1508 1507 1506 1505 1504 1502 1501 1499 1498 1497 1496 1495 1494 1494 1493 1493 1492 1492 1492 1492 1492 1492 1493 1493 1492 1491 1491 1490 1489 1489 1488 1486 1485 1484 1482 1481 1481 1480 1479 1478 1476 1475 1473 1472 1470 1468 1466 1465 1464 1463 1461 1460 1458 1456 1455 1454 1453 1452 1451 1451 1450 1448 1447 1445 1444 1443 1441 1440 1439 1438
1514 1513 1513 1512 1512 1512 1512 1511 1511 1511 1510 1509 1508 1507 1506 1505 1504 1503 1502 1501 1499 1498 1497 1495 1494 1492 1492 1491 1490 1490 1489 1489 1488 1488 1488 1488 1489 1489 1488 1488 1487 1486 1485 1484 1483 1483 1482 1481 1479 1478 1476 1475 1474 1474 1473 1472 1470 1469 1467 1465 1464 1462 1461 1459 1458 1456 1455 1454 1452 1450 1449 1447 1446 1446 1445 1445 1444 1442 1441 1439 1438 1437 1435 1434 1433
1513 1512 1511 1511 1510 1510 1510 1509 1509 1509 1508 1506 1506 1505 1504 1503 1501 1500 1498 1497 1496 1495 1493 1491 1490 1489 1489 1488 1487 1487 1486 1486 1485 1485 1484 1484 1484 1484 1483 1482 1482 1481 1480 1479 1479 1478 1477 1476 1475 1473 1471 1470 1469 1468 1467 1466 1465 1463 1462 1460 1459 1458 1456 1455 1453 1451 1450 1449 1447 1445 1444 1442 1441 1441 1440 1440 1439 1438 1436 1435 1433 1432 1431 1430 1429
1511 1510 1509 1509 1508 1508 1507 1507 1506 1505 1504 1503 1503 1502 1501 1500 1498 1497 1496 1494 1493 1491 1490 1488 1487 1486 1485 1484 1484 1483 1483 1482 1482 1481 1481 1481 1480 1480 1479 1478 1477 1476 1475 1474 1474 1474 1473 1472 1470 1469 1467 1465 1464 1463 1462 1460 1459 1458 1456 1455 1454 1452 1451 1450 1448 1447 1445 1444 1442 1441 1439 1437 1436 1436 1435 1435 1434 1433 1432 1430 1429 1428 1427 1425 1424
1510 1509 1508 1507 1506 1506 1505 1504 1503 1502 1501 1501 1500 1498 1498 1497 1495 1494 1493 1491 1489 1488 1487 1485 1484 1483 1482 1481 1480 1480 1479 1479 1478 1478 1477 1477 1476 1476 1475 1474 1473 1472 1471 1470 1469 1469 1468 1467 1466 1464 1462 1461 1459 1458 1457 1455 1454 1452 1451 1450 1448 1447 1446 1444 1443 1442 1441 1438 1436 1435 1434 1432 1431 1431 1430 1430 1430 1429 1427 1426 1425 1424 1423 1422 1420
1509 1508 1507 1506 1505 1504 1503 1502 1501 1500 1499 1498 1497 1496 1495 1494 1492 1491 1490 1488 1487 1485 1484 1483 1482 1481 1480 1479 1478 1477 1476 1475 1474 1474 1473 1473 1472 1471 1470 1469 1468 1467 1466 1465 1464 1463 1463 1462 1461 1460 1458 1456 1455 1453 1452 1450 1449 1447 1446 1444 1443 1442 1440 1439 1438 1437 1436 1434 1432 1430 1429 1427 1426 1426 1425 1425 1425 1424 1423 1422 1422 1421 1420 1419 1417